This is the latest recevied weather packets stored in our database for station/object EA1AHA-13. If no packets are shown the sender has not sent any weather packets the latest 1 day(s).
| Time | Temp. | Humidity | Pressure | Rain* | Wind** | Luminosity | Snow |
|---|---|---|---|---|---|---|---|
| 1778049390 | 11.67° C | 80% | 1013.3 hPa | 0 mm | 1.79 m/s, 247° | - | - |
| 1778048766 | 11.11° C | 82% | 1013.1 hPa | 0 mm | 0.89 m/s, 270° | - | - |
| 1778048188 | 11.11° C | 81% | 1013.3 hPa | 0 mm | 1.79 m/s, 270° | - | - |
| 1778047574 | 11.11° C | 82% | 1013 hPa | 0 mm | 1.34 m/s, 247° | - | - |
| 1778046988 | 11.11° C | 83% | 1013.2 hPa | 0 mm | 1.34 m/s, 225° | - | - |
| 1778046365 | 11.11° C | 83% | 1013.2 hPa | 0 mm | 0.45 m/s, 247° | - | - |
| 1778045789 | 10.56° C | 83% | 1013.1 hPa | 0 mm | 0.89 m/s, 247° | - | - |
| 1778045165 | 10.56° C | 84% | 1012.8 hPa | 0 mm | 0.89 m/s, 225° | - | - |
| 1778043389 | 10.56° C | 86% | 1013 hPa | 0 mm | 0 m/s | - | - |
| 1778042764 | 10.56° C | 86% | 1012.9 hPa | 0 mm | 0 m/s | - | - |
| 1778042189 | 10.56° C | 86% | 1012.9 hPa | 0 mm | 0 m/s | - | - |
| 1778040364 | 11.11° C | 85% | 1012.9 hPa | 0 mm | 2.24 m/s, 202° | - | - |
| 1778039789 | 11.11° C | 85% | 1013.1 hPa | 0 mm | 1.34 m/s, 270° | - | - |
| 1778037964 | 11.11° C | 85% | 1013.1 hPa | 0 mm | 0 m/s | - | - |
| 1778037388 | 11.11° C | 84% | 1013.3 hPa | 0 mm | 1.79 m/s, 270° | - | - |
| 1778036765 | 10.56° C | 86% | 1013.2 hPa | 0 mm | 1.34 m/s, 247° | - | - |
| 1778036189 | 10.56° C | 85% | 1013.2 hPa | 0 mm | 0.89 m/s, 225° | - | - |
| 1778035613 | 10.56° C | 87% | 1013.2 hPa | 0 mm | 1.34 m/s, 202° | - | - |
| 1778034989 | 10.56° C | 86% | 1013.1 hPa | 0 mm | 0.45 m/s, 225° | - | - |
| 1778034364 | 11.11° C | 85% | 1013.2 hPa | 0 mm | 1.34 m/s, 247° | - | - |
| 1778033789 | 11.11° C | 86% | 1013.2 hPa | 0 mm | 1.34 m/s, 225° | - | - |
| 1778033164 | 10.56° C | 86% | 1013.3 hPa | 0 mm | 1.34 m/s, 270° | - | - |
| 1778032588 | 11.11° C | 86% | 1013.6 hPa | 0 mm | 1.34 m/s, 270° | - | - |
| 1778031965 | 11.11° C | 85% | 1013.4 hPa | 0 mm | 1.79 m/s, 247° | - | - |
| 1778031389 | 11.11° C | 85% | 1013.4 hPa | 0 mm | 1.34 m/s, 270° | - | - |
* Rain latest hour (hover to see other rain measurements)
** Current wind speed in m/s (hover to see current wind gust speed)